RH
86 95 95 100 100 100 97 94 86 86 95 91 94 95 93 90 84 79 75 66 66 87 92 92 100 100 99
98 100 99 100 100 100 99 95 90 90 91 99 100 97 96 91 85 79 73 60 67 92 94 96 98 99 99
100 99 100 100 100 100 100 97 93 92 98 99 99 100 98 93 85 78 59 54 77 91 96 98 98 99 99
100 100 100 99 98 99 99 99 98 95 95 99 97 99 100 92 84 72 54 73 82 96 98 98 100 99 100
100 100 100 100 100 92 98 99 100 98 95 98 97 94 93 85 79 65 64 79 94 98 98 99 99 100 99
100 98 100 99 95 98 100 100 99 98 99 98 95 91 88 82 72 67 82 83 93 98 98 99 100 98 95
99 99 98 95 98 100 100 99 97 88 98 98 96 90 85 79 69 74 81 81 94 99 98 100 91 88 89
100 99 94 93 96 91 92 99 99 95 92 95 92 91 84 72 62 78 76 74 84 98 92 71 78 84 80
100 100 100 100 99 100 100 100 99 94 95 86 73 71 67 61 64 85 76 65 69 92 80 54 48 67 78
99 100 100 99 94 88 89 100 95 96 91 86 68 62 66 61 67 82 80 62 61 53 49 49 44 39 57
98 100 100 100 100 97 94 92 92 86 85 87 73 62 44 68 73 79 76 65 58 51 47 45 55 38 36
100 100 98 96 100 100 100 100 91 86 82 76 67 63 51 78 78 78 75 63 58 53 46 43 48 48 40
100 99 98 95 100 100 100 100 100 97 87 74 71 47 43 50 69 84 77 68 60 56 49 44 39 42 45
100 100 98 99 99 100 100 99 99 95 86 79 68 50 46 42 47 71 56 54 52 46 42 40 39 40 38
100 99 99 99 98 99 99 98 97 98 96 89 72 62 52 44 52 52 48 53 50 42 40 36 37 38 37
100 99 99 98 98 98 98 98 96 96 96 96 90 83 73 65 50 47 48 45 48 46 39 37 40 38 36
100 99 99 98 98 98 98 98 99 97 97 96 95 77 84 78 68 50 38 48 47 53 47 40 44 49 47
Wind_Speed
15 21 19 26 25 23 20 18 14 12 12 11 11 11 10 9 9 10 11 10 11 10 11 12 14 16 19
15 15 18 21 24 23 19 17 14 14 12 12 12 11 11 10 9 10 9 9 9 9 11 11 15 17 19
14 19 20 17 20 19 15 17 17 15 14 14 14 13 13 10 11 10 8 7 8 10 11 9 14 16 16
14 11 17 18 21 22 17 22 21 17 16 17 16 15 15 11 13 9 8 6 6 8 8 7 12 15 15
13 12 14 11 24 24 27 28 21 18 18 19 18 18 18 14 13 11 6 6 6 8 7 5 8 14 14
15 13 18 26 25 25 22 16 4 19 23 23 20 21 18 15 12 9 8 5 4 6 6 7 6 10 13
20 22 19 30 27 27 28 18 13 14 18 14 20 21 18 15 11 10 8 6 3 5 5 6 4 7 11
30 28 30 26 27 25 28 24 17 15 16 8 14 17 16 15 14 12 9 5 2 3 6 3 4 5 8
28 28 28 21 21 21 21 17 6 10 18 11 11 11 13 15 15 13 9 5 2 2 5 5 3 4 8
24 22 22 18 20 23 25 20 11 5 17 17 13 11 4 12 18 17 12 8 5 1 2 4 4 3 5
24 23 19 19 22 23 23 28 22 11 11 25 16 15 5 6 11 17 13 9 6 4 2 3 6 7 6
21 23 24 23 24 23 22 24 21 22 19 23 8 15 11 7 5 15 15 10 8 7 4 2 5 7 9
20 22 25 26 20 19 17 17 17 16 15 21 17 13 13 8 8 11 11 12 11 9 6 5 4 6 8
21 20 20 19 19 20 18 16 14 12 16 16 15 13 14 9 7 15 11 7 14 11 9 7 6 6 6
20 20 21 23 24 22 19 19 9 12 13 12 14 13 10 12 8 14 15 11 14 13 11 10 8 6 6
21 22 21 21 22 24 21 19 16 13 16 16 17 14 8 8 9 16 15 15 16 12 11 10 9 6 6
23 22 21 21 21 23 22 20 15 17 18 18 20 16 3 2 8 11 17 16 16 13 11 7 7 7 7
Wind_Direction
231 227 222 221 221 223 226 226 223 233 237 246 245 243 248 252 271 282 301 312 320 329 328 330 331 323 323
213 214 208 225 226 225 218 226 227 230 234 242 239 246 248 261 270 283 299 307 320 328 327 330 335 329 329
186 199 201 215 220 232 226 230 233 227 223 235 240 245 245 251 262 279 285 311 317 321 332 330 342 337 333
195 187 195 196 210 220 232 241 238 232 233 235 238 235 244 249 261 271 289 296 321 330 333 347 351 347 343
190 182 184 181 195 209 221 237 238 236 239 235 236 236 241 246 259 268 268 289 324 328 330 3 354 357 353
212 203 205 206 207 212 208 206 206 236 228 232 230 235 242 243 248 249 254 282 330 326 340 359 3 4 354
219 220 210 229 212 204 213 211 203 203 207 217 228 233 233 233 231 227 240 273 319 336 4 10 23 358 1
249 246 243 241 238 227 231 224 216 208 204 181 216 219 222 223 211 213 230 251 307 355 11 32 28 6 7
255 254 251 236 236 215 206 181 190 191 199 191 199 193 207 211 212 211 213 207 237 346 27 28 38 40 33
250 242 243 229 223 223 214 188 169 171 210 190 183 181 172 207 208 205 202 199 220 268 12 42 46 65 54
251 245 241 226 227 221 220 219 189 188 206 191 187 188 171 150 195 206 206 207 209 215 217 70 61 68 76
232 231 231 226 221 217 212 218 224 217 211 195 193 190 171 145 179 198 203 202 202 201 197 127 88 79 77
226 223 224 228 211 210 205 210 206 208 206 194 210 198 189 163 166 178 176 205 205 209 191 175 148 105 91
227 227 224 218 204 206 196 191 185 181 190 195 199 208 188 181 172 167 174 169 182 178 166 158 132 119 113
223 218 208 200 196 193 189 183 174 177 182 186 186 193 198 194 157 174 168 159 169 169 161 152 144 141 127
223 216 205 193 188 194 193 192 182 184 188 185 175 169 173 184 187 172 169 162 160 165 155 150 159 156 143
227 217 207 195 183 182 187 184 179 191 196 191 182 174 139 160 173 185 179 180 173 166 158 151 149 142 141